Home > Weather > Essen > Past weeks

Flag for Germany Past Weather in Essen, North Rhine-Westphalia, Germany — Yesterday and Last 2 Weeks

Now
75 °F

Partly sunny.


Feels Like: 78 °F
Forecast: 62 / 72 °F
Wind: 14 mph from Southwest

Location: Duesseldorf

Current Time: Jul 27, 2016 at 5:27:20 PM

Latest Report: Jul 27, 2016 at 4:50 PM


Visibility: N/A

Pressure: 30.01 "Hg

Humidity: 54%

Dew Point: 57 °F

Location of EssenLocation

Past Weather in Essen — Graph

°F

Essen Temperature Yesterday

Maximum temperature yesterday: 73 °F (at 11:50 AM)
Minimum temperature yesterday: 61 °F (at 5:20 AM)
Average temperature yesterday: 69 °F

High & Low Weather Summary for the Past Weeks

 TemperatureHumidityPressure
High95 °F (Jul 20, 4:20 PM)100% (Jul 13, 3:50 AM)30.30 "Hg (Jul 13, 3:50 AM)
Low46 °F (Jul 14, 4:20 AM)30% (Jul 20, 2:50 PM)29.83 "Hg (Jul 20, 5:20 PM)
Average69 °F72%30.08 "Hg
* Reported Jul 12 4:20 PM — Jul 27 4:20 PM, Essen, Weather by CustomWeather, © 2016

Note: Actual official high and low records may vary slightly from our data, if they occured in-between our weather recording intervals... More about our weather records

Advertising

Essen Weather History for the Previous 24 Hours

Scroll right to see more
 ConditionsComfort  
Time TempWeatherWind HumidityBarometerVisibility
4:20 PM
Wed, Jul 27
73 °FBroken clouds.15 mph53%30.01 "HgN/A
3:50 PM75 °FPartly sunny.15 mph54%30.01 "HgN/A
3:20 PM73 °FPartly sunny.14 mph53%30.01 "HgN/A
2:50 PM75 °FPartly sunny.15 mph50%30.01 "HgN/A
2:20 PM73 °FPartly sunny.13 mph53%30.04 "HgN/A
1:50 PM73 °FPartly sunny.15 mph50%30.04 "HgN/A
1:20 PM73 °FScattered clouds.13 mph50%30.04 "HgN/A
12:50 PM72 °FScattered clouds.15 mph53%30.04 "HgN/A
12:20 PM72 °FPassing clouds.15 mph57%30.04 "HgN/A
11:50 AM68 °FScattered clouds.10 mph64%30.07 "HgN/A
11:20 AM68 °FScattered clouds.10 mph69%30.07 "HgN/A
10:50 AM68 °FScattered clouds.10 mph69%30.07 "HgN/A
10:20 AM68 °FPassing clouds.9 mph69%30.07 "HgN/A
9:50 AM66 °FPassing clouds.9 mph78%30.07 "HgN/A
9:20 AM66 °FScattered clouds.10 mph78%30.07 "HgN/A
8:50 AM64 °FScattered clouds.7 mph83%30.07 "HgN/A
8:20 AM64 °FScattered clouds.8 mph78%30.07 "HgN/A
7:50 AM63 °FScattered clouds.7 mph83%30.07 "HgN/A
7:20 AM61 °FPartly sunny.6 mph94%30.04 "HgN/A
6:50 AM63 °FPartly sunny.8 mph88%30.04 "HgN/A
6:20 AM63 °FPassing clouds.9 mph88%30.04 "HgN/A
5:50 AM63 °FPartly cloudy.5 mph94%30.04 "HgN/A
5:20 AM63 °FClear.7 mph88%30.04 "Hg10 mi
4:50 AM61 °FClear.8 mph94%30.07 "Hg10 mi
4:20 AM63 °FClear.7 mph88%30.07 "Hg10 mi
3:50 AM63 °FClear.5 mph88%30.07 "Hg10 mi
3:20 AM61 °FClear.5 mph94%30.07 "Hg10 mi
2:50 AM63 °FClear.5 mph88%30.07 "Hg10 mi
2:20 AM63 °FClear.8 mph88%30.09 "Hg10 mi
1:50 AM64 °FClear.5 mph88%30.09 "Hg10 mi
1:20 AM64 °FClear.5 mph88%30.09 "Hg10 mi
12:50 AM66 °FPassing clouds.6 mph83%30.09 "HgN/A
12:20 AM66 °FClear.7 mph83%30.09 "Hg10 mi
11:50 PM
Tue, Jul 26
66 °FClear.7 mph78%30.09 "Hg10 mi
11:20 PM66 °FClear.7 mph78%30.09 "Hg10 mi
10:50 PM66 °FPassing clouds.6 mph73%30.09 "HgN/A
10:20 PM66 °FPassing clouds.5 mph73%30.09 "HgN/A
9:50 PM66 °FSunny.7 mph73%30.09 "Hg10 mi
9:20 PM68 °FSunny.6 mph69%30.09 "Hg10 mi
8:50 PM70 °FPassing clouds.5 mph64%30.09 "HgN/A
8:20 PM72 °FPartly sunny.5 mph65%30.09 "HgN/A
7:50 PM73 °FPartly sunny.2 mph50%30.09 "HgN/A
7:20 PM73 °FPartly sunny.2 mph53%30.09 "HgN/A
6:50 PM73 °FPartly sunny.2 mph53%30.09 "HgN/A
6:20 PM72 °FBroken clouds.3 mph57%30.12 "HgN/A
5:50 PM73 °FBroken clouds.3 mph53%30.12 "HgN/A
5:20 PM72 °FBroken clouds.5 mph61%30.12 "HgN/A
Weather by CustomWeather, © 2016

See weather overviewHow to use our weather pages